owner,sensor,date,latitude,longitude,air_temperature,qcFlag 
COMPS,ioos:station:USF.COMPS:C12:1,2015-08-01T00:05:00Z,27.4980,-83.7220,21.63,1111122 
COMPS,ioos:station:USF.COMPS:C12:1,2015-08-01T00:35:00Z,27.4980,-83.7220,21.7,1111122 
COMPS,ioos:station:USF.COMPS:C12:1,2015-08-01T01:05:00Z,27.4980,-83.7220,21.03,1111122 
COMPS,ioos:station:USF.COMPS:C12:1,2015-08-01T01:35:00Z,27.4980,-83.7220,20.26,1111122 
COMPS,ioos:station:USF.COMPS:C12:1,2015-08-01T02:05:00Z,27.4980,-83.7220,20.95,1111122 
COMPS,ioos:station:USF.COMPS:C12:1,2015-08-01T02:35:00Z,27.4980,-83.7220,20.99,1111122 
COMPS,ioos:station:USF.COMPS:C12:1,2015-08-01T04:05:00Z,27.4980,-83.7220,20.85,1111122 
COMPS,ioos:station:USF.COMPS:C12:1,2015-08-01T04:35:00Z,27.4980,-83.7220,21.36,1111122 
COMPS,ioos:station:USF.COMPS:C12:1,2015-08-01T05:05:00Z,27.4980,-83.7220,21.51,1111122 
COMPS,ioos:station:USF.COMPS:C12:1,2015-08-01T05:35:00Z,27.4980,-83.7220,21.92,1111122 
COMPS,ioos:station:USF.COMPS:C12:1,2015-08-01T06:05:00Z,27.4980,-83.7220,21.68,1111122 
COMPS,ioos:station:USF.COMPS:C12:1,2015-08-01T06:35:00Z,27.4980,-83.7220,20.83,1111122 
COMPS,ioos:station:USF.COMPS:C12:1,2015-08-01T07:05:00Z,27.4980,-83.7220,20.82,1111122 
COMPS,ioos:station:USF.COMPS:C12:1,2015-08-01T07:35:00Z,27.4980,-83.7220,20.74,1111122 
COMPS,ioos:station:USF.COMPS:C12:1,2015-08-01T08:05:00Z,27.4980,-83.7220,20.74,1111122 
COMPS,ioos:station:USF.COMPS:C12:1,2015-08-01T08:35:00Z,27.4980,-83.7220,21.0,1111122 
COMPS,ioos:station:USF.COMPS:C12:1,2015-08-01T09:05:00Z,27.4980,-83.7220,21.16,1111122 
COMPS,ioos:station:USF.COMPS:C12:1,2015-08-01T09:35:00Z,27.4980,-83.7220,21.01,1111122 
COMPS,ioos:station:USF.COMPS:C12:1,2015-08-01T10:05:00Z,27.4980,-83.7220,20.82,1111122 
COMPS,ioos:station:USF.COMPS:C12:1,2015-08-01T10:35:00Z,27.4980,-83.7220,21.08,1111122 
COMPS,ioos:station:USF.COMPS:C12:1,2015-08-01T11:05:00Z,27.4980,-83.7220,21.4,1111122 
COMPS,ioos:station:USF.COMPS:C12:1,2015-08-01T11:35:00Z,27.4980,-83.7220,21.52,1111122 
COMPS,ioos:station:USF.COMPS:C12:1,2015-08-01T12:05:00Z,27.4980,-83.7220,21.48,1111122 
COMPS,ioos:station:USF.COMPS:C12:1,2015-08-01T12:35:00Z,27.4980,-83.7220,21.58,1111122 
COMPS,ioos:station:USF.COMPS:C12:1,2015-08-01T13:05:00Z,27.4980,-83.7220,21.73,1111122 
COMPS,ioos:station:USF.COMPS:C12:1,2015-08-01T13:35:00Z,27.4980,-83.7220,21.72,1111122 
COMPS,ioos:station:USF.COMPS:C12:1,2015-08-01T14:05:00Z,27.4980,-83.7220,21.65,1111122 
COMPS,ioos:station:USF.COMPS:C12:1,2015-08-01T14:35:00Z,27.4980,-83.7220,21.67,1111122 
COMPS,ioos:station:USF.COMPS:C12:1,2015-08-01T15:05:00Z,27.4980,-83.7220,21.55,1111122 
COMPS,ioos:station:USF.COMPS:C12:1,2015-08-01T15:35:00Z,27.4980,-83.7220,21.55,1111122 
COMPS,ioos:station:USF.COMPS:C12:1,2015-08-01T16:05:00Z,27.4980,-83.7220,21.57,1111122 
COMPS,ioos:station:USF.COMPS:C12:1,2015-08-01T16:35:00Z,27.4980,-83.7220,21.46,1111122 
COMPS,ioos:station:USF.COMPS:C12:1,2015-08-01T17:05:00Z,27.4980,-83.7220,19.18,1111122 
COMPS,ioos:station:USF.COMPS:C12:1,2015-08-01T17:35:00Z,27.4980,-83.7220,18.27,1111122 
COMPS,ioos:station:USF.COMPS:C12:1,2015-08-01T18:05:00Z,27.4980,-83.7220,18.96,1111122 
COMPS,ioos:station:USF.COMPS:C12:1,2015-08-01T18:35:00Z,27.4980,-83.7220,20.49,1111122 
COMPS,ioos:station:USF.COMPS:C12:1,2015-08-01T19:05:00Z,27.4980,-83.7220,20.49,1111122 
COMPS,ioos:station:USF.COMPS:C12:1,2015-08-01T19:35:00Z,27.4980,-83.7220,19.77,1111122 
COMPS,ioos:station:USF.COMPS:C12:1,2015-08-01T20:05:00Z,27.4980,-83.7220,19.68,1111122 
COMPS,ioos:station:USF.COMPS:C12:1,2015-08-01T20:35:00Z,27.4980,-83.7220,20.02,1111122 
COMPS,ioos:station:USF.COMPS:C12:1,2015-08-01T21:05:00Z,27.4980,-83.7220,18.85,1111122 
COMPS,ioos:station:USF.COMPS:C12:1,2015-08-01T21:35:00Z,27.4980,-83.7220,18.55,1111122 
COMPS,ioos:station:USF.COMPS:C12:1,2015-08-01T22:05:00Z,27.4980,-83.7220,18.0,1111122 
COMPS,ioos:station:USF.COMPS:C12:1,2015-08-01T22:35:00Z,27.4980,-83.7220,19.24,1111122 
COMPS,ioos:station:USF.COMPS:C12:1,2015-08-02T04:05:00Z,27.4980,-83.7220,20.09,1111122 
COMPS,ioos:station:USF.COMPS:C12:1,2015-08-02T04:35:00Z,27.4980,-83.7220,20.06,1111122 
COMPS,ioos:station:USF.COMPS:C12:1,2015-08-02T05:05:00Z,27.4980,-83.7220,20.29,1111122 
COMPS,ioos:station:USF.COMPS:C12:1,2015-08-02T05:35:00Z,27.4980,-83.7220,20.21,1111122 
COMPS,ioos:station:USF.COMPS:C12:1,2015-08-02T06:05:00Z,27.4980,-83.7220,19.55,1111122 
COMPS,ioos:station:USF.COMPS:C12:1,2015-08-02T06:35:00Z,27.4980,-83.7220,19.09,1111122 
COMPS,ioos:station:USF.COMPS:C12:1,2015-08-02T07:05:00Z,27.4980,-83.7220,19.35,1111122 
COMPS,ioos:station:USF.COMPS:C12:1,2015-08-02T07:35:00Z,27.4980,-83.7220,19.81,1111122 
COMPS,ioos:station:USF.COMPS:C12:1,2015-08-02T08:05:00Z,27.4980,-83.7220,19.92,1111122 
COMPS,ioos:station:USF.COMPS:C12:1,2015-08-02T08:35:00Z,27.4980,-83.7220,19.35,1111122 
COMPS,ioos:station:USF.COMPS:C12:1,2015-08-02T09:05:00Z,27.4980,-83.7220,19.41,1111122 
COMPS,ioos:station:USF.COMPS:C12:1,2015-08-02T09:35:00Z,27.4980,-83.7220,19.3,1111122 
COMPS,ioos:station:USF.COMPS:C12:1,2015-08-02T10:05:00Z,27.4980,-83.7220,19.13,1111122 
COMPS,ioos:station:USF.COMPS:C12:1,2015-08-02T10:35:00Z,27.4980,-83.7220,19.5,1111122 
COMPS,ioos:station:USF.COMPS:C12:1,2015-08-02T11:05:00Z,27.4980,-83.7220,19.22,1111122 
COMPS,ioos:station:USF.COMPS:C12:1,2015-08-02T11:35:00Z,27.4980,-83.7220,19.71,1111122 
COMPS,ioos:station:USF.COMPS:C12:1,2015-08-02T12:05:00Z,27.4980,-83.7220,19.31,1111122 
COMPS,ioos:station:USF.COMPS:C12:1,2015-08-02T12:35:00Z,27.4980,-83.7220,19.45,1111122 
COMPS,ioos:station:USF.COMPS:C12:1,2015-08-02T13:05:00Z,27.4980,-83.7220,19.22,1111122 
COMPS,ioos:station:USF.COMPS:C12:1,2015-08-02T13:35:00Z,27.4980,-83.7220,19.37,1111122 
COMPS,ioos:station:USF.COMPS:C12:1,2015-08-02T14:05:00Z,27.4980,-83.7220,19.06,1111122 
COMPS,ioos:station:USF.COMPS:C12:1,2015-08-02T14:35:00Z,27.4980,-83.7220,18.75,1111122 
COMPS,ioos:station:USF.COMPS:C12:1,2015-08-02T15:05:00Z,27.4980,-83.7220,19.37,1111122 
COMPS,ioos:station:USF.COMPS:C12:1,2015-08-02T15:35:00Z,27.4980,-83.7220,19.53,1111122 
COMPS,ioos:station:USF.COMPS:C12:1,2015-08-02T16:05:00Z,27.4980,-83.7220,19.45,1111122 
COMPS,ioos:station:USF.COMPS:C12:1,2015-08-02T16:35:00Z,27.4980,-83.7220,18.94,1111122 
COMPS,ioos:station:USF.COMPS:C12:1,2015-08-02T17:05:00Z,27.4980,-83.7220,19.3,1111122 
COMPS,ioos:station:USF.COMPS:C12:1,2015-08-02T17:35:00Z,27.4980,-83.7220,19.42,1111122 
COMPS,ioos:station:USF.COMPS:C12:1,2015-08-02T18:05:00Z,27.4980,-83.7220,19.23,1111122 
COMPS,ioos:station:USF.COMPS:C12:1,2015-08-02T18:35:00Z,27.4980,-83.7220,19.74,1111122 
COMPS,ioos:station:USF.COMPS:C12:1,2015-08-02T19:05:00Z,27.4980,-83.7220,19.78,1111122 
COMPS,ioos:station:USF.COMPS:C12:1,2015-08-02T19:35:00Z,27.4980,-83.7220,18.68,1111122 
COMPS,ioos:station:USF.COMPS:C12:1,2015-08-02T20:05:00Z,27.4980,-83.7220,18.0,1111122 
COMPS,ioos:station:USF.COMPS:C12:1,2015-08-02T20:35:00Z,27.4980,-83.7220,17.84,1111122 
COMPS,ioos:station:USF.COMPS:C12:1,2015-08-02T21:05:00Z,27.4980,-83.7220,19.34,1111122 
COMPS,ioos:station:USF.COMPS:C12:1,2015-08-02T21:35:00Z,27.4980,-83.7220,19.05,1111122 
COMPS,ioos:station:USF.COMPS:C12:1,2015-08-02T22:05:00Z,27.4980,-83.7220,19.24,1111122 
COMPS,ioos:station:USF.COMPS:C12:1,2015-08-02T22:35:00Z,27.4980,-83.7220,19.16,1111122 
COMPS,ioos:station:USF.COMPS:C12:1,2015-08-02T23:05:00Z,27.4980,-83.7220,19.04,1111122 
COMPS,ioos:station:USF.COMPS:C12:1,2015-08-02T23:35:00Z,27.4980,-83.7220,18.99,1111122 
COMPS,ioos:station:USF.COMPS:C12:1,2015-08-03T00:05:00Z,27.4980,-83.7220,18.95,1111122 
COMPS,ioos:station:USF.COMPS:C12:1,2015-08-03T00:35:00Z,27.4980,-83.7220,18.64,1111122 
COMPS,ioos:station:USF.COMPS:C12:1,2015-08-03T02:05:00Z,27.4980,-83.7220,18.03,1111122 
COMPS,ioos:station:USF.COMPS:C12:1,2015-08-03T02:35:00Z,27.4980,-83.7220,18.82,1111122 
COMPS,ioos:station:USF.COMPS:C12:1,2015-08-03T04:05:00Z,27.4980,-83.7220,18.6,1111122 
COMPS,ioos:station:USF.COMPS:C12:1,2015-08-03T04:35:00Z,27.4980,-83.7220,18.63,1111122 
COMPS,ioos:station:USF.COMPS:C12:1,2015-08-03T05:05:00Z,27.4980,-83.7220,18.59,1111122 
COMPS,ioos:station:USF.COMPS:C12:1,2015-08-03T05:35:00Z,27.4980,-83.7220,18.69,1111122 
COMPS,ioos:station:USF.COMPS:C12:1,2015-08-03T06:05:00Z,27.4980,-83.7220,18.64,1111122 
COMPS,ioos:station:USF.COMPS:C12:1,2015-08-03T06:35:00Z,27.4980,-83.7220,18.61,1111122 
COMPS,ioos:station:USF.COMPS:C12:1,2015-08-03T07:05:00Z,27.4980,-83.7220,18.72,1111122 
COMPS,ioos:station:USF.COMPS:C12:1,2015-08-03T07:35:00Z,27.4980,-83.7220,18.63,1111122 
COMPS,ioos:station:USF.COMPS:C12:1,2015-08-03T08:05:00Z,27.4980,-83.7220,18.5,1111122 
COMPS,ioos:station:USF.COMPS:C12:1,2015-08-03T08:35:00Z,27.4980,-83.7220,18.2,1111122 
COMPS,ioos:station:USF.COMPS:C12:1,2015-08-03T09:05:00Z,27.4980,-83.7220,17.73,1111122 
COMPS,ioos:station:USF.COMPS:C12:1,2015-08-03T09:35:00Z,27.4980,-83.7220,16.99,1111122 
COMPS,ioos:station:USF.COMPS:C12:1,2015-08-03T10:05:00Z,27.4980,-83.7220,16.92,1111122 
COMPS,ioos:station:USF.COMPS:C12:1,2015-08-03T10:35:00Z,27.4980,-83.7220,17.01,1111122 
COMPS,ioos:station:USF.COMPS:C12:1,2015-08-03T11:05:00Z,27.4980,-83.7220,16.91,1111122 
COMPS,ioos:station:USF.COMPS:C12:1,2015-08-03T11:35:00Z,27.4980,-83.7220,16.41,1111122 
COMPS,ioos:station:USF.COMPS:C12:1,2015-08-03T12:05:00Z,27.4980,-83.7220,16.45,1111122 
COMPS,ioos:station:USF.COMPS:C12:1,2015-08-03T12:35:00Z,27.4980,-83.7220,16.44,1111122 
COMPS,ioos:station:USF.COMPS:C12:1,2015-08-03T13:05:00Z,27.4980,-83.7220,16.41,1111122 
COMPS,ioos:station:USF.COMPS:C12:1,2015-08-03T13:35:00Z,27.4980,-83.7220,16.36,1111122 
COMPS,ioos:station:USF.COMPS:C12:1,2015-08-03T14:05:00Z,27.4980,-83.7220,16.34,1111122 
COMPS,ioos:station:USF.COMPS:C12:1,2015-08-03T14:35:00Z,27.4980,-83.7220,16.62,1111122 
COMPS,ioos:station:USF.COMPS:C12:1,2015-08-03T15:05:00Z,27.4980,-83.7220,16.46,1111122 
COMPS,ioos:station:USF.COMPS:C12:1,2015-08-03T15:35:00Z,27.4980,-83.7220,16.54,1111122 
COMPS,ioos:station:USF.COMPS:C12:1,2015-08-03T16:05:00Z,27.4980,-83.7220,16.6,1111122 
COMPS,ioos:station:USF.COMPS:C12:1,2015-08-03T16:35:00Z,27.4980,-83.7220,16.3,1111122 
COMPS,ioos:station:USF.COMPS:C12:1,2015-08-03T17:05:00Z,27.4980,-83.7220,16.58,1111122 
COMPS,ioos:station:USF.COMPS:C12:1,2015-08-03T17:35:00Z,27.4980,-83.7220,16.72,1111122 
COMPS,ioos:station:USF.COMPS:C12:1,2015-08-03T18:05:00Z,27.4980,-83.7220,17.35,1111122 
COMPS,ioos:station:USF.COMPS:C12:1,2015-08-03T18:35:00Z,27.4980,-83.7220,17.18,1111122 
COMPS,ioos:station:USF.COMPS:C12:1,2015-08-03T19:05:00Z,27.4980,-83.7220,17.33,1111122 
COMPS,ioos:station:USF.COMPS:C12:1,2015-08-03T19:35:00Z,27.4980,-83.7220,17.63,1111122 
COMPS,ioos:station:USF.COMPS:C12:1,2015-08-03T20:05:00Z,27.4980,-83.7220,17.71,1111122 
COMPS,ioos:station:USF.COMPS:C12:1,2015-08-03T20:35:00Z,27.4980,-83.7220,17.88,1111122 
COMPS,ioos:station:USF.COMPS:C12:1,2015-08-03T21:05:00Z,27.4980,-83.7220,17.94,1111122 
COMPS,ioos:station:USF.COMPS:C12:1,2015-08-03T21:35:00Z,27.4980,-83.7220,17.64,1111122 
COMPS,ioos:station:USF.COMPS:C12:1,2015-08-03T22:05:00Z,27.4980,-83.7220,18.27,1111122 
COMPS,ioos:station:USF.COMPS:C12:1,2015-08-03T22:35:00Z,27.4980,-83.7220,17.73,1111122 
COMPS,ioos:station:USF.COMPS:C12:1,2015-08-03T23:05:00Z,27.4980,-83.7220,17.64,1111122 
COMPS,ioos:station:USF.COMPS:C12:1,2015-08-03T23:35:00Z,27.4980,-83.7220,18.02,1111122 
COMPS,ioos:station:USF.COMPS:C12:1,2015-08-04T00:05:00Z,27.4980,-83.7220,17.7,1111122 
COMPS,ioos:station:USF.COMPS:C12:1,2015-08-04T00:35:00Z,27.4980,-83.7220,17.77,1111122 
COMPS,ioos:station:USF.COMPS:C12:1,2015-08-04T04:05:00Z,27.4980,-83.7220,17.81,1111122 
COMPS,ioos:station:USF.COMPS:C12:1,2015-08-04T04:35:00Z,27.4980,-83.7220,17.71,1111122 
COMPS,ioos:station:USF.COMPS:C12:1,2015-08-04T05:05:00Z,27.4980,-83.7220,17.69,1111122 
COMPS,ioos:station:USF.COMPS:C12:1,2015-08-04T05:35:00Z,27.4980,-83.7220,17.57,1111122 
COMPS,ioos:station:USF.COMPS:C12:1,2015-08-04T06:05:00Z,27.4980,-83.7220,17.54,1111122 
COMPS,ioos:station:USF.COMPS:C12:1,2015-08-04T06:35:00Z,27.4980,-83.7220,17.39,1111122 
COMPS,ioos:station:USF.COMPS:C12:1,2015-08-04T07:05:00Z,27.4980,-83.7220,17.37,1111122 
COMPS,ioos:station:USF.COMPS:C12:1,2015-08-04T07:35:00Z,27.4980,-83.7220,17.22,1111122 
COMPS,ioos:station:USF.COMPS:C12:1,2015-08-04T08:05:00Z,27.4980,-83.7220,17.11,1111122 
COMPS,ioos:station:USF.COMPS:C12:1,2015-08-04T08:35:00Z,27.4980,-83.7220,17.13,1111122 
COMPS,ioos:station:USF.COMPS:C12:1,2015-08-04T09:05:00Z,27.4980,-83.7220,17.21,1111122 
COMPS,ioos:station:USF.COMPS:C12:1,2015-08-04T09:35:00Z,27.4980,-83.7220,17.23,1111122 
COMPS,ioos:station:USF.COMPS:C12:1,2015-08-04T10:05:00Z,27.4980,-83.7220,17.09,1111122 
COMPS,ioos:station:USF.COMPS:C12:1,2015-08-04T10:35:00Z,27.4980,-83.7220,17.07,1111122 
COMPS,ioos:station:USF.COMPS:C12:1,2015-08-04T11:05:00Z,27.4980,-83.7220,17.13,1111122 
COMPS,ioos:station:USF.COMPS:C12:1,2015-08-04T11:35:00Z,27.4980,-83.7220,17.25,1111122 
COMPS,ioos:station:USF.COMPS:C12:1,2015-08-04T12:05:00Z,27.4980,-83.7220,17.29,1111122 
COMPS,ioos:station:USF.COMPS:C12:1,2015-08-04T12:35:00Z,27.4980,-83.7220,17.22,1111122 
COMPS,ioos:station:USF.COMPS:C12:1,2015-08-04T13:05:00Z,27.4980,-83.7220,17.2,1111122 
COMPS,ioos:station:USF.COMPS:C12:1,2015-08-04T13:35:00Z,27.4980,-83.7220,17.34,1111122 
COMPS,ioos:station:USF.COMPS:C12:1,2015-08-04T14:05:00Z,27.4980,-83.7220,17.26,1111122 
COMPS,ioos:station:USF.COMPS:C12:1,2015-08-04T14:35:00Z,27.4980,-83.7220,17.3,1111122 
COMPS,ioos:station:USF.COMPS:C12:1,2015-08-04T15:05:00Z,27.4980,-83.7220,17.3,1111122 
COMPS,ioos:station:USF.COMPS:C12:1,2015-08-04T15:35:00Z,27.4980,-83.7220,17.22,1111122 
COMPS,ioos:station:USF.COMPS:C12:1,2015-08-04T16:05:00Z,27.4980,-83.7220,17.27,1111122 
COMPS,ioos:station:USF.COMPS:C12:1,2015-08-04T16:35:00Z,27.4980,-83.7220,16.45,1111122 
COMPS,ioos:station:USF.COMPS:C12:1,2015-08-04T17:05:00Z,27.4980,-83.7220,16.2,1111122 
COMPS,ioos:station:USF.COMPS:C12:1,2015-08-04T17:35:00Z,27.4980,-83.7220,16.15,1111122 
COMPS,ioos:station:USF.COMPS:C12:1,2015-08-04T18:05:00Z,27.4980,-83.7220,16.23,1111122 
COMPS,ioos:station:USF.COMPS:C12:1,2015-08-04T18:35:00Z,27.4980,-83.7220,16.48,1111122 
COMPS,ioos:station:USF.COMPS:C12:1,2015-08-04T19:05:00Z,27.4980,-83.7220,16.73,1111122 
COMPS,ioos:station:USF.COMPS:C12:1,2015-08-04T19:35:00Z,27.4980,-83.7220,16.83,1111122 
COMPS,ioos:station:USF.COMPS:C12:1,2015-08-04T20:05:00Z,27.4980,-83.7220,16.97,1111122 
COMPS,ioos:station:USF.COMPS:C12:1,2015-08-04T20:35:00Z,27.4980,-83.7220,17.2,1111122 
COMPS,ioos:station:USF.COMPS:C12:1,2015-08-04T21:05:00Z,27.4980,-83.7220,17.25,1111122 
COMPS,ioos:station:USF.COMPS:C12:1,2015-08-04T21:35:00Z,27.4980,-83.7220,17.48,1111122 
COMPS,ioos:station:USF.COMPS:C12:1,2015-08-04T22:05:00Z,27.4980,-83.7220,17.56,1111122 
COMPS,ioos:station:USF.COMPS:C12:1,2015-08-04T22:35:00Z,27.4980,-83.7220,17.55,1111122 
COMPS,ioos:station:USF.COMPS:C12:1,2015-08-05T00:05:00Z,27.4980,-83.7220,17.59,1111122 
COMPS,ioos:station:USF.COMPS:C12:1,2015-08-05T00:35:00Z,27.4980,-83.7220,17.68,1111122 
COMPS,ioos:station:USF.COMPS:C12:1,2015-08-05T04:05:00Z,27.4980,-83.7220,17.16,1111122 
COMPS,ioos:station:USF.COMPS:C12:1,2015-08-05T04:35:00Z,27.4980,-83.7220,17.18,1111122 
COMPS,ioos:station:USF.COMPS:C12:1,2015-08-05T05:05:00Z,27.4980,-83.7220,17.18,1111122 
COMPS,ioos:station:USF.COMPS:C12:1,2015-08-05T05:35:00Z,27.4980,-83.7220,17.21,1111122 
COMPS,ioos:station:USF.COMPS:C12:1,2015-08-05T06:05:00Z,27.4980,-83.7220,17.17,1111122 
COMPS,ioos:station:USF.COMPS:C12:1,2015-08-05T06:35:00Z,27.4980,-83.7220,17.13,1111122 
COMPS,ioos:station:USF.COMPS:C12:1,2015-08-05T07:05:00Z,27.4980,-83.7220,17.11,1111122 
COMPS,ioos:station:USF.COMPS:C12:1,2015-08-05T07:35:00Z,27.4980,-83.7220,17.06,1111122 
COMPS,ioos:station:USF.COMPS:C12:1,2015-08-05T08:05:00Z,27.4980,-83.7220,17.09,1111122 
COMPS,ioos:station:USF.COMPS:C12:1,2015-08-05T08:35:00Z,27.4980,-83.7220,16.79,1111122 
COMPS,ioos:station:USF.COMPS:C12:1,2015-08-05T09:05:00Z,27.4980,-83.7220,16.76,1111122 
COMPS,ioos:station:USF.COMPS:C12:1,2015-08-05T09:35:00Z,27.4980,-83.7220,16.77,1111122 
COMPS,ioos:station:USF.COMPS:C12:1,2015-08-05T10:05:00Z,27.4980,-83.7220,16.87,1111122 
COMPS,ioos:station:USF.COMPS:C12:1,2015-08-05T10:35:00Z,27.4980,-83.7220,16.78,1111122 
COMPS,ioos:station:USF.COMPS:C12:1,2015-08-05T11:05:00Z,27.4980,-83.7220,16.89,1111122 
COMPS,ioos:station:USF.COMPS:C12:1,2015-08-05T11:35:00Z,27.4980,-83.7220,16.8,1111122 
COMPS,ioos:station:USF.COMPS:C12:1,2015-08-05T12:05:00Z,27.4980,-83.7220,16.88,1111122 
COMPS,ioos:station:USF.COMPS:C12:1,2015-08-05T12:35:00Z,27.4980,-83.7220,16.85,1111122 
COMPS,ioos:station:USF.COMPS:C12:1,2015-08-05T13:05:00Z,27.4980,-83.7220,16.83,1111122 
COMPS,ioos:station:USF.COMPS:C12:1,2015-08-05T13:35:00Z,27.4980,-83.7220,16.75,1111122 
COMPS,ioos:station:USF.COMPS:C12:1,2015-08-05T14:05:00Z,27.4980,-83.7220,16.75,1111122 
COMPS,ioos:station:USF.COMPS:C12:1,2015-08-05T14:35:00Z,27.4980,-83.7220,16.71,1111122 
COMPS,ioos:station:USF.COMPS:C12:1,2015-08-05T15:05:00Z,27.4980,-83.7220,16.81,1111122 
COMPS,ioos:station:USF.COMPS:C12:1,2015-08-05T15:35:00Z,27.4980,-83.7220,16.89,1111122 
COMPS,ioos:station:USF.COMPS:C12:1,2015-08-05T16:05:00Z,27.4980,-83.7220,17.06,1111122 
COMPS,ioos:station:USF.COMPS:C12:1,2015-08-05T16:35:00Z,27.4980,-83.7220,17.1,1111122 
COMPS,ioos:station:USF.COMPS:C12:1,2015-08-05T17:05:00Z,27.4980,-83.7220,17.25,1111122 
COMPS,ioos:station:USF.COMPS:C12:1,2015-08-05T17:35:00Z,27.4980,-83.7220,17.34,1111122 
COMPS,ioos:station:USF.COMPS:C12:1,2015-08-05T18:05:00Z,27.4980,-83.7220,17.68,1111122 
COMPS,ioos:station:USF.COMPS:C12:1,2015-08-05T18:35:00Z,27.4980,-83.7220,17.71,1111122 
COMPS,ioos:station:USF.COMPS:C12:1,2015-08-05T19:05:00Z,27.4980,-83.7220,17.95,1111122 
COMPS,ioos:station:USF.COMPS:C12:1,2015-08-05T19:35:00Z,27.4980,-83.7220,17.97,1111122 
COMPS,ioos:station:USF.COMPS:C12:1,2015-08-05T20:05:00Z,27.4980,-83.7220,18.21,1111122 
COMPS,ioos:station:USF.COMPS:C12:1,2015-08-05T20:35:00Z,27.4980,-83.7220,18.98,1111122 
COMPS,ioos:station:USF.COMPS:C12:1,2015-08-05T21:05:00Z,27.4980,-83.7220,19.41,1111122 
COMPS,ioos:station:USF.COMPS:C12:1,2015-08-05T21:35:00Z,27.4980,-83.7220,19.96,1111122 
COMPS,ioos:station:USF.COMPS:C12:1,2015-08-05T22:05:00Z,27.4980,-83.7220,21.47,1111122 
COMPS,ioos:station:USF.COMPS:C12:1,2015-08-05T22:35:00Z,27.4980,-83.7220,23.27,1111122 
COMPS,ioos:station:USF.COMPS:C12:1,2015-08-05T23:05:00Z,27.4980,-83.7220,25.05,1111122 
COMPS,ioos:station:USF.COMPS:C12:1,2015-08-05T23:35:00Z,27.4980,-83.7220,26.16,1111122 
COMPS,ioos:station:USF.COMPS:C12:1,2015-08-06T00:05:00Z,27.4980,-83.7220,26.65,1111122 
COMPS,ioos:station:USF.COMPS:C12:1,2015-08-06T00:35:00Z,27.4980,-83.7220,26.82,1111122 
COMPS,ioos:station:USF.COMPS:C12:1,2015-08-06T01:05:00Z,27.4980,-83.7220,27.17,1111122 
COMPS,ioos:station:USF.COMPS:C12:1,2015-08-06T01:35:00Z,27.4980,-83.7220,27.26,1111122 
COMPS,ioos:station:USF.COMPS:C12:1,2015-08-06T04:05:00Z,27.4980,-83.7220,26.83,1111122 
COMPS,ioos:station:USF.COMPS:C12:1,2015-08-06T04:35:00Z,27.4980,-83.7220,26.71,1111122 
COMPS,ioos:station:USF.COMPS:C12:1,2015-08-06T05:05:00Z,27.4980,-83.7220,26.41,1111122 
COMPS,ioos:station:USF.COMPS:C12:1,2015-08-06T05:35:00Z,27.4980,-83.7220,26.04,1111122 
COMPS,ioos:station:USF.COMPS:C12:1,2015-08-06T06:05:00Z,27.4980,-83.7220,25.79,1111122 
COMPS,ioos:station:USF.COMPS:C12:1,2015-08-06T06:35:00Z,27.4980,-83.7220,25.21,1111122 
COMPS,ioos:station:USF.COMPS:C12:1,2015-08-06T07:05:00Z,27.4980,-83.7220,24.9,1111122 
COMPS,ioos:station:USF.COMPS:C12:1,2015-08-06T07:35:00Z,27.4980,-83.7220,24.2,1111122 
COMPS,ioos:station:USF.COMPS:C12:1,2015-08-06T08:05:00Z,27.4980,-83.7220,22.89,1111122 
COMPS,ioos:station:USF.COMPS:C12:1,2015-08-06T08:35:00Z,27.4980,-83.7220,22.36,1111122 
COMPS,ioos:station:USF.COMPS:C12:1,2015-08-06T09:05:00Z,27.4980,-83.7220,21.85,1111122 
COMPS,ioos:station:USF.COMPS:C12:1,2015-08-06T09:35:00Z,27.4980,-83.7220,21.38,1111122 
COMPS,ioos:station:USF.COMPS:C12:1,2015-08-06T10:05:00Z,27.4980,-83.7220,21.12,1111122 
COMPS,ioos:station:USF.COMPS:C12:1,2015-08-06T10:35:00Z,27.4980,-83.7220,20.92,1111122 
COMPS,ioos:station:USF.COMPS:C12:1,2015-08-06T11:05:00Z,27.4980,-83.7220,20.73,1111122 
COMPS,ioos:station:USF.COMPS:C12:1,2015-08-06T11:35:00Z,27.4980,-83.7220,20.57,1111122 
COMPS,ioos:station:USF.COMPS:C12:1,2015-08-06T12:05:00Z,27.4980,-83.7220,20.73,1111122 
COMPS,ioos:station:USF.COMPS:C12:1,2015-08-06T12:35:00Z,27.4980,-83.7220,20.83,1111122 
COMPS,ioos:station:USF.COMPS:C12:1,2015-08-06T13:05:00Z,27.4980,-83.7220,20.65,1111122 
COMPS,ioos:station:USF.COMPS:C12:1,2015-08-06T13:35:00Z,27.4980,-83.7220,20.67,1111122 
COMPS,ioos:station:USF.COMPS:C12:1,2015-08-06T14:05:00Z,27.4980,-83.7220,20.58,1111122 
COMPS,ioos:station:USF.COMPS:C12:1,2015-08-06T14:35:00Z,27.4980,-83.7220,20.35,1111122 
COMPS,ioos:station:USF.COMPS:C12:1,2015-08-06T15:05:00Z,27.4980,-83.7220,20.15,1111122 
COMPS,ioos:station:USF.COMPS:C12:1,2015-08-06T15:35:00Z,27.4980,-83.7220,20.31,1111122 
COMPS,ioos:station:USF.COMPS:C12:1,2015-08-06T16:05:00Z,27.4980,-83.7220,19.89,1111122 
COMPS,ioos:station:USF.COMPS:C12:1,2015-08-06T16:35:00Z,27.4980,-83.7220,19.99,1111122 
COMPS,ioos:station:USF.COMPS:C12:1,2015-08-06T17:05:00Z,27.4980,-83.7220,19.85,1111122 
COMPS,ioos:station:USF.COMPS:C12:1,2015-08-06T17:35:00Z,27.4980,-83.7220,19.65,1111122 
COMPS,ioos:station:USF.COMPS:C12:1,2015-08-06T18:05:00Z,27.4980,-83.7220,19.54,1111122 
COMPS,ioos:station:USF.COMPS:C12:1,2015-08-06T18:35:00Z,27.4980,-83.7220,19.44,1111122 
COMPS,ioos:station:USF.COMPS:C12:1,2015-08-06T19:05:00Z,27.4980,-83.7220,19.21,1111122 
COMPS,ioos:station:USF.COMPS:C12:1,2015-08-06T19:35:00Z,27.4980,-83.7220,19.14,1111122 
COMPS,ioos:station:USF.COMPS:C12:1,2015-08-06T20:05:00Z,27.4980,-83.7220,19.06,1111122 
COMPS,ioos:station:USF.COMPS:C12:1,2015-08-06T20:35:00Z,27.4980,-83.7220,18.91,1111122 
COMPS,ioos:station:USF.COMPS:C12:1,2015-08-06T21:05:00Z,27.4980,-83.7220,18.68,1111122 
COMPS,ioos:station:USF.COMPS:C12:1,2015-08-06T21:35:00Z,27.4980,-83.7220,18.54,1111122 
COMPS,ioos:station:USF.COMPS:C12:1,2015-08-06T22:05:00Z,27.4980,-83.7220,18.5,1111122 
COMPS,ioos:station:USF.COMPS:C12:1,2015-08-06T22:35:00Z,27.4980,-83.7220,18.51,1111122 
COMPS,ioos:station:USF.COMPS:C12:1,2015-08-06T23:05:00Z,27.4980,-83.7220,18.44,1111122 
COMPS,ioos:station:USF.COMPS:C12:1,2015-08-06T23:35:00Z,27.4980,-83.7220,18.36,1111122 
COMPS,ioos:station:USF.COMPS:C12:1,2015-08-07T00:05:00Z,27.4980,-83.7220,18.24,1111122 
COMPS,ioos:station:USF.COMPS:C12:1,2015-08-07T00:35:00Z,27.4980,-83.7220,18.08,1111122 
COMPS,ioos:station:USF.COMPS:C12:1,2015-08-07T01:05:00Z,27.4980,-83.7220,17.91,1111122 
COMPS,ioos:station:USF.COMPS:C12:1,2015-08-07T01:35:00Z,27.4980,-83.7220,17.98,1111122 
COMPS,ioos:station:USF.COMPS:C12:1,2015-08-07T02:05:00Z,27.4980,-83.7220,17.82,1111122 
COMPS,ioos:station:USF.COMPS:C12:1,2015-08-07T02:35:00Z,27.4980,-83.7220,17.73,1111122 
COMPS,ioos:station:USF.COMPS:C12:1,2015-08-07T04:05:00Z,27.4980,-83.7220,17.53,1111122 
COMPS,ioos:station:USF.COMPS:C12:1,2015-08-07T04:35:00Z,27.4980,-83.7220,17.4,1111122 
COMPS,ioos:station:USF.COMPS:C12:1,2015-08-07T05:05:00Z,27.4980,-83.7220,17.42,1111122 
COMPS,ioos:station:USF.COMPS:C12:1,2015-08-07T05:35:00Z,27.4980,-83.7220,17.4,1111122 
COMPS,ioos:station:USF.COMPS:C12:1,2015-08-07T06:05:00Z,27.4980,-83.7220,17.36,1111122 
COMPS,ioos:station:USF.COMPS:C12:1,2015-08-07T06:35:00Z,27.4980,-83.7220,17.35,1111122 
COMPS,ioos:station:USF.COMPS:C12:1,2015-08-07T07:05:00Z,27.4980,-83.7220,17.42,1111122 
COMPS,ioos:station:USF.COMPS:C12:1,2015-08-07T07:35:00Z,27.4980,-83.7220,17.28,1111122 
COMPS,ioos:station:USF.COMPS:C12:1,2015-08-07T08:05:00Z,27.4980,-83.7220,17.31,1111122 
COMPS,ioos:station:USF.COMPS:C12:1,2015-08-07T08:35:00Z,27.4980,-83.7220,17.44,1111122 
COMPS,ioos:station:USF.COMPS:C12:1,2015-08-07T09:05:00Z,27.4980,-83.7220,17.45,1111122 
COMPS,ioos:station:USF.COMPS:C12:1,2015-08-07T09:35:00Z,27.4980,-83.7220,17.46,1111122 